• In Moldova, Republic
  • List of Countries
  • For 7 days
  • Water Temperature
  • Satellite Maps
  • Weather Map
  • Weather Widgets
  • user-avatar
    Login

    Hourly Weather Graz

    Today, 29 April, Saturday

    Time Temperature Precipitation Wind Pressure Humidity
    00:00 +1°C° 0 mm 2 mps 722 mmHg 93%
    01:00 +1°C° 0 mm 2 mps 722 mmHg 94%
    02:00 +1°C° 0 mm 2 mps 723 mmHg 94%
    03:00 +2°C° 0 mm 1 mps 723 mmHg 93%
    04:00 +1°C° 0 mm 1 mps 723 mmHg 93%
    05:00 +3°C° 0 mm 1 mps 724 mmHg 89%
    06:00 +4°C° 0 mm 1 mps 724 mmHg 85%
    07:00 +6°C° 0 mm 1 mps 725 mmHg 80%
    08:00 +8°C° 0 mm 1 mps 725 mmHg 73%
    09:00 +9°C° 0 mm 1 mps 725 mmHg 66%
    10:00 +11°C° 0 mm 1 mps 725 mmHg 58%
    11:00 +11°C° 0.1 mm 1 mps 725 mmHg 56%
    12:00 +12°C° 0.1 mm 1 mps 724 mmHg 54%
    13:00 +12°C° 0 mm 1 mps 724 mmHg 52%
    14:00 +12°C° 0.1 mm 1 mps 724 mmHg 53%
    15:00 +12°C° 0.1 mm 1 mps 724 mmHg 53%
    16:00 +12°C° 0.1 mm 1 mps 724 mmHg 54%
    17:00 +10°C° 0 mm 1 mps 724 mmHg 64%
    18:00 +7°C° 0 mm 1 mps 723 mmHg 74%
    19:00 +5°C° 0 mm 1 mps 723 mmHg 84%
    20:00 +4°C° 0 mm 1 mps 723 mmHg 86%
    21:00 +2°C° 0 mm 0 mps 724 mmHg 89%
    22:00 +1°C° 0 mm 0 mps 724 mmHg 92%
    23:00 +1°C° 0 mm 0 mps 724 mmHg 92%

    Tomorrow, 30 April, Sunday

    Time Temperature Precipitation Wind Pressure Humidity
    00:00 0°C° 0 mm 0 mps 724 mmHg 92%
    01:00 0°C° 0 mm 0 mps 724 mmHg 93%
    02:00 0°C° 0 mm 0 mps 724 mmHg 93%
    03:00 0°C° 0 mm 0 mps 724 mmHg 93%
    04:00 0°C° 0 mm 0 mps 724 mmHg 93%
    05:00 +3°C° 0 mm 0 mps 724 mmHg 86%
    06:00 +5°C° 0 mm 0 mps 725 mmHg 79%
    07:00 +8°C° 0 mm 0 mps 725 mmHg 71%
    08:00 +10°C° 0 mm 1 mps 725 mmHg 66%
    09:00 +11°C° 0 mm 1 mps 725 mmHg 60%
    10:00 +13°C° 0 mm 2 mps 725 mmHg 54%
    11:00 +13°C° 0 mm 2 mps 724 mmHg 53%
    12:00 +14°C° 0 mm 2 mps 724 mmHg 52%
    13:00 +14°C° 0 mm 3 mps 723 mmHg 50%
    14:00 +14°C° 0 mm 3 mps 723 mmHg 53%
    15:00 +13°C° 0 mm 3 mps 723 mmHg 55%
    16:00 +13°C° 0 mm 3 mps 722 mmHg 57%
    17:00 +12°C° 0 mm 2 mps 722 mmHg 68%
    18:00 +9°C° 0 mm 2 mps 722 mmHg 79%
    19:00 +8°C° 0 mm 1 mps 722 mmHg 90%
    20:00 +8°C° 0 mm 1 mps 722 mmHg 91%
    21:00 +8°C° 0 mm 1 mps 722 mmHg 91%
    22:00 +8°C° 0 mm 1 mps 723 mmHg 91%
    23:00 +8°C° 0 mm 1 mps 722 mmHg 91%

    Day after tomorrow, 1 May, Monday

    Time Temperature Precipitation Wind Pressure Humidity
    00:00 +8°C° 0 mm 1 mps 722 mmHg 91%
    01:00 +8°C° 0 mm 1 mps 722 mmHg 91%
    02:00 +8°C° 0 mm 1 mps 722 mmHg 92%
    03:00 +7°C° 0 mm 1 mps 721 mmHg 93%
    04:00 +7°C° 0 mm 1 mps 721 mmHg 94%
    05:00 +8°C° 0 mm 1 mps 721 mmHg 91%
    06:00 +8°C° 0 mm 1 mps 721 mmHg 88%
    07:00 +8°C° 0 mm 2 mps 721 mmHg 86%
    08:00 +9°C° 0 mm 2 mps 721 mmHg 81%
    09:00 +12°C° 0 mm 2 mps 721 mmHg 76%
    10:00 +13°C° 0 mm 2 mps 721 mmHg 71%
    11:00 +14°C° 0 mm 2 mps 721 mmHg 68%
    12:00 +14°C° 0 mm 2 mps 721 mmHg 66%
    13:00 +15°C° 0 mm 2 mps 721 mmHg 63%
    14:00 +15°C° 0 mm 2 mps 721 mmHg 64%
    15:00 +16°C° 0 mm 2 mps 721 mmHg 65%
    16:00 +16°C° 0 mm 2 mps 720 mmHg 66%
    17:00 +14°C° 0 mm 2 mps 720 mmHg 75%
    18:00 +13°C° 0 mm 2 mps 721 mmHg 83%
    19:00 +11°C° 0 mm 1 mps 721 mmHg 92%
    20:00 +10°C° 0.2 mm 1 mps 721 mmHg 93%
    21:00 +10°C° 0.2 mm 1 mps 722 mmHg 94%
    22:00 +9°C° 0.2 mm 1 mps 722 mmHg 95%
    23:00 +9°C° 0.4 mm 1 mps 722 mmHg 95%

    2 May, Tuesday

    Time Temperature Precipitation Wind Pressure Humidity
    00:00 +10°C° 0.4 mm 1 mps 722 mmHg 95%
    01:00 +10°C° 0.4 mm 1 mps 723 mmHg 96%
    02:00 +9°C° 0 mm 1 mps 723 mmHg 96%
    03:00 +9°C° 0 mm 1 mps 723 mmHg 96%
    04:00 +8°C° 0 mm 1 mps 723 mmHg 96%
    05:00 +9°C° 0 mm 1 mps 723 mmHg 94%
    06:00 +10°C° 0 mm 1 mps 724 mmHg 92%
    07:00 +11°C° 0 mm 1 mps 724 mmHg 89%
    08:00 +12°C° 0 mm 1 mps 724 mmHg 85%
    09:00 +13°C° 0 mm 1 mps 725 mmHg 80%
    10:00 +14°C° 0 mm 1 mps 725 mmHg 76%
    11:00 +15°C° 0.1 mm 1 mps 725 mmHg 72%
    12:00 +15°C° 0.1 mm 1 mps 725 mmHg 69%
    13:00 +16°C° 0.1 mm 1 mps 725 mmHg 66%
    14:00 +16°C° 0.1 mm 1 mps 724 mmHg 66%
    15:00 +16°C° 0.1 mm 1 mps 724 mmHg 65%
    16:00 +17°C° 0.1 mm 2 mps 724 mmHg 65%
    17:00 +15°C° 0.1 mm 1 mps 724 mmHg 73%
    18:00 +13°C° 0.1 mm 1 mps 724 mmHg 81%
    19:00 +11°C° 0.1 mm 1 mps 724 mmHg 89%
    20:00 +11°C° 0 mm 1 mps 724 mmHg 91%
    21:00 +10°C° 0 mm 1 mps 724 mmHg 92%
    22:00 +10°C° 0 mm 1 mps 725 mmHg 94%
    23:00 +10°C° 0 mm 1 mps 724 mmHg 95%

    3 May, Wednesday

    Time Temperature Precipitation Wind Pressure Humidity
    00:00 +9°C° 0 mm 1 mps 724 mmHg 95%
    01:00 +8°C° 0 mm 0 mps 724 mmHg 96%
    02:00 +8°C° 0 mm 0 mps 724 mmHg 96%
    03:00 +8°C° 0 mm 0 mps 724 mmHg 96%
    04:00 +8°C° 0 mm 0 mps 723 mmHg 95%
    05:00 +9°C° 0 mm 0 mps 723 mmHg 91%
    06:00 +11°C° 0 mm 0 mps 723 mmHg 88%
    07:00 +12°C° 0 mm 0 mps 723 mmHg 84%
    08:00 +14°C° 0 mm 1 mps 723 mmHg 76%
    09:00 +16°C° 0 mm 1 mps 723 mmHg 69%
    10:00 +17°C° 0 mm 2 mps 723 mmHg 62%
    11:00 +18°C° 0 mm 2 mps 723 mmHg 57%
    12:00 +18°C° 0 mm 2 mps 723 mmHg 53%
    13:00 +19°C° 0 mm 2 mps 722 mmHg 49%
    14:00 +19°C° 0 mm 2 mps 722 mmHg 50%
    15:00 +19°C° 0 mm 2 mps 722 mmHg 51%
    16:00 +18°C° 0 mm 2 mps 722 mmHg 53%
    17:00 +16°C° 0 mm 2 mps 721 mmHg 62%
    18:00 +14°C° 0 mm 2 mps 721 mmHg 71%
    19:00 +12°C° 0 mm 1 mps 721 mmHg 79%
    20:00 +11°C° 0 mm 1 mps 721 mmHg 82%
    21:00 +10°C° 0 mm 1 mps 721 mmHg 84%
    22:00 +9°C° 0 mm 1 mps 721 mmHg 87%
    23:00 +9°C° 0 mm 1 mps 721 mmHg 87%

    4 May, Thursday

    Time Temperature Precipitation Wind Pressure Humidity
    00:00 +8°C° 0 mm 1 mps 721 mmHg 87%
    01:00 +8°C° 0 mm 1 mps 721 mmHg 88%
    02:00 +8°C° 0 mm 1 mps 721 mmHg 89%
    03:00 +8°C° 0 mm 1 mps 721 mmHg 90%
    04:00 +8°C° 0 mm 1 mps 721 mmHg 90%
    05:00 +10°C° 0 mm 1 mps 721 mmHg 86%
    06:00 +11°C° 0 mm 1 mps 721 mmHg 81%
    07:00 +13°C° 0 mm 1 mps 721 mmHg 76%
    08:00 +14°C° 0.2 mm 1 mps 722 mmHg 74%
    09:00 +15°C° 0.2 mm 1 mps 722 mmHg 72%
    10:00 +16°C° 0.2 mm 1 mps 722 mmHg 69%
    11:00 +16°C° 0.7 mm 1 mps 722 mmHg 72%
    12:00 +15°C° 0.7 mm 1 mps 721 mmHg 75%
    13:00 +15°C° 0.7 mm 2 mps 721 mmHg 78%
    14:00 +16°C° 0.5 mm 2 mps 721 mmHg 76%
    15:00 +16°C° 0.5 mm 2 mps 721 mmHg 74%
    16:00 +16°C° 0.5 mm 2 mps 720 mmHg 73%
    17:00 +14°C° 0.4 mm 1 mps 720 mmHg 79%
    18:00 +12°C° 0.4 mm 1 mps 720 mmHg 85%
    19:00 +10°C° 0.4 mm 1 mps 720 mmHg 91%
    20:00 +10°C° 0.1 mm 1 mps 720 mmHg 92%
    21:00 +9°C° 0.1 mm 1 mps 721 mmHg 93%
    22:00 +8°C° 0.1 mm 1 mps 721 mmHg 94%
    23:00 +8°C° 0 mm 1 mps 721 mmHg 94%
    Show more